timestamp,surface_pressure_avg,surface_temp_avg,battery_voltage,lat,long
2024-04-14 00:09:00+00:00,253.4631,1.52,12.09,47.84626,-54.09684
2024-04-14 00:19:00+00:00,258.2197,1.53,12.09,47.84626,-54.09684
2024-04-14 00:29:00+00:00,259.7681,1.55,12.09,47.84626,-54.09684
2024-04-14 00:39:00+00:00,261.0764,1.56,12.09,47.84626,-54.09684
2024-04-14 00:49:00+00:00,266.8731,1.57,12.09,47.84626,-54.09684
2024-04-14 00:59:00+00:00,275.6297,1.58,12.09,47.84626,-54.09684
2024-04-14 01:09:00+00:00,282.618,1.58,12.09,47.84626,-54.09684
2024-04-14 01:19:00+00:00,290.3314,1.58,12.09,47.84626,-54.09684
2024-04-14 01:29:00+00:00,300.2063,1.59,12.09,47.84626,-54.09684
2024-04-14 01:39:00+00:00,311.278,1.59,12.09,47.84626,-54.09684
2024-04-14 01:49:00+00:00,317.4513,1.59,12.09,47.84626,-54.09684
2024-04-14 01:59:00+00:00,322.3013,1.6,12.09,47.84626,-54.09684
2024-04-14 02:09:00+00:00,328.9763,1.6,12.09,47.84626,-54.09684
2024-04-14 02:19:00+00:00,334.5446,1.6,12.09,47.84626,-54.09684
2024-04-14 02:29:00+00:00,334.7496,1.6,12.09,47.84626,-54.09684
2024-04-14 02:39:00+00:00,337.173,1.6,12.09,47.84626,-54.09684
2024-04-14 02:49:00+00:00,341.0514,1.6,12.09,47.84626,-54.09684
2024-04-14 02:59:00+00:00,341.9313,1.6,12.09,47.84626,-54.09684
2024-04-14 03:09:00+00:00,341.9496,1.63,12.09,47.84626,-54.09684
2024-04-14 03:19:00+00:00,347.6263,1.65,12.09,47.84626,-54.09684
2024-04-14 03:29:00+00:00,351.7047,1.67,12.09,47.84626,-54.09684
2024-04-14 03:39:00+00:00,347.8296,1.68,12.09,47.84626,-54.09684
2024-04-14 03:49:00+00:00,346.5013,1.7,12.09,47.84626,-54.09684
2024-04-14 03:59:00+00:00,348.288,1.7,12.09,47.84626,-54.09684
2024-04-14 04:09:00+00:00,350.2212,1.7,12.09,47.84626,-54.09684
2024-04-14 04:19:00+00:00,343.3146,1.7,12.09,47.84626,-54.09684
2024-04-14 04:29:00+00:00,337.7363,1.7,12.09,47.84626,-54.09684
2024-04-14 04:39:00+00:00,335.8780000000001,1.7,12.09,47.84626,-54.09684
2024-04-14 04:49:00+00:00,333.1146,1.7,12.09,47.84626,-54.09684
2024-04-14 04:59:00+00:00,329.9047,1.7,12.09,47.84626,-54.09684
2024-04-14 05:09:00+00:00,325.9746,1.7,12.09,47.84626,-54.09684
2024-04-14 05:19:00+00:00,322.6931,1.7,12.09,47.84626,-54.09684
2024-04-14 05:29:00+00:00,317.7263,1.7,12.09,47.84626,-54.09684
2024-04-14 05:39:00+00:00,309.298,1.7,12.09,47.84626,-54.09684
2024-04-14 05:49:00+00:00,303.9997,1.7,12.09,47.84626,-54.09684
2024-04-14 05:59:00+00:00,302.2396,1.7,12.09,47.84626,-54.09684
2024-04-14 06:09:00+00:00,296.9497,1.7,12.09,47.84626,-54.09684
2024-04-14 06:19:00+00:00,286.7164,1.7,12.09,47.84626,-54.09684
2024-04-14 06:29:00+00:00,280.1263,1.7,12.09,47.84626,-54.09684
2024-04-14 06:39:00+00:00,275.5447,1.69,12.09,47.84626,-54.09684
2024-04-14 06:49:00+00:00,267.7547,1.69,12.09,47.84626,-54.09684
2024-04-14 06:59:00+00:00,257.1664,1.69,12.09,47.84626,-54.09684
2024-04-14 07:09:00+00:00,249.7064,1.69,12.09,47.84626,-54.09684
2024-04-14 07:19:00+00:00,249.0698,1.69,12.09,47.84626,-54.09684
2024-04-14 07:29:00+00:00,245.5948,1.69,12.09,47.84626,-54.09684
2024-04-14 07:39:00+00:00,240.2231,1.7,12.09,47.84626,-54.09684
2024-04-14 07:49:00+00:00,234.6198,1.7,12.09,47.84626,-54.09684
2024-04-14 07:59:00+00:00,230.1715,1.78,12.09,47.84626,-54.09684
2024-04-14 08:09:00+00:00,220.9464,1.85,12.09,47.84626,-54.09684
2024-04-14 08:19:00+00:00,215.4248,1.93,12.01,47.84626,-54.09684
2024-04-14 08:29:00+00:00,214.0381,1.98,12.01,47.84626,-54.09684
2024-04-14 08:39:00+00:00,211.7348,1.97,12.01,47.84626,-54.09684
2024-04-14 08:49:00+00:00,204.5215,1.94,12.01,47.84626,-54.09684
2024-04-14 08:59:00+00:00,202.1898,1.9,12.01,47.84626,-54.09684
2024-04-14 09:09:00+00:00,204.4198,1.91,12.01,47.84626,-54.09684
2024-04-14 09:19:00+00:00,206.6198,1.94,12.01,47.84626,-54.09684
2024-04-14 09:29:00+00:00,208.4314,1.94,12.01,47.84626,-54.09684
2024-04-14 09:39:00+00:00,211.1897,1.9,12.01,47.84626,-54.09684
2024-04-14 09:49:00+00:00,212.7765,1.9,12.01,47.84626,-54.09684
2024-04-14 09:59:00+00:00,212.9064,1.9,12.01,47.84626,-54.09684
2024-04-14 10:09:00+00:00,216.1231,1.9,12.01,47.84626,-54.09684
2024-04-14 10:19:00+00:00,220.9881,1.9,12.01,47.84626,-54.09684
2024-04-14 10:29:00+00:00,222.6548,1.9,12.01,47.84626,-54.09684
2024-04-14 10:39:00+00:00,223.6781,1.9,12.01,47.84626,-54.09684
2024-04-14 10:49:00+00:00,224.0014,1.9,12.01,47.84626,-54.09684
2024-04-14 10:59:00+00:00,224.8731,1.89,12.01,47.84626,-54.09684
2024-04-14 11:09:00+00:00,228.0648,1.88,12.01,47.84626,-54.09684
2024-04-14 11:19:00+00:00,233.9714,1.88,12.01,47.84626,-54.09684
2024-04-14 11:29:00+00:00,236.4898,1.85,12.01,47.84626,-54.09684
2024-04-14 11:39:00+00:00,234.7031,1.82,12.01,47.84626,-54.09684
2024-04-14 11:49:00+00:00,235.0414,1.82,12.01,47.84626,-54.09684
2024-04-14 11:59:00+00:00,238.5364,1.84,12.01,47.84626,-54.09684
2024-04-14 12:09:00+00:00,237.7347,1.84,12.01,47.84626,-54.09684
2024-04-14 12:19:00+00:00,233.2648,1.82,12.09,47.84626,-54.09684
2024-04-14 12:29:00+00:00,236.3647,1.83,12.09,47.84626,-54.09684
2024-04-14 12:39:00+00:00,241.003,1.81,12.09,47.84626,-54.09684
2024-04-14 12:49:00+00:00,238.3148,1.82,12.09,47.84626,-54.09684
2024-04-14 12:59:00+00:00,238.3131,1.84,12.09,47.84626,-54.09684
2024-04-14 13:09:00+00:00,247.8714,1.85,12.09,47.84626,-54.09684
2024-04-14 13:19:00+00:00,253.9548,1.85,12.09,47.84626,-54.09684
2024-04-14 13:29:00+00:00,254.8514,1.87,12.09,47.84626,-54.09684
2024-04-14 13:39:00+00:00,259.0698,1.88,12.09,47.84626,-54.09684
2024-04-14 13:49:00+00:00,265.2631,1.88,12.09,47.84626,-54.09684
2024-04-14 13:59:00+00:00,269.9864,1.89,12.09,47.84626,-54.09684
2024-04-14 14:09:00+00:00,269.4114,1.89,12.09,47.84626,-54.09684
2024-04-14 14:19:00+00:00,275.6164,1.89,12.09,47.84626,-54.09684
2024-04-14 14:29:00+00:00,283.2647,1.89,12.09,47.84626,-54.09684
2024-04-14 14:39:00+00:00,288.1914,1.9,12.09,47.84626,-54.09684
2024-04-14 14:49:00+00:00,287.498,1.9,12.09,47.84626,-54.09684
2024-04-14 14:59:00+00:00,291.6047,1.9,12.09,47.84626,-54.09684
2024-04-14 15:09:00+00:00,295.4647,1.88,12.09,47.84626,-54.09684
2024-04-14 15:19:00+00:00,294.5647,1.86,12.09,47.84626,-54.09684
2024-04-14 15:29:00+00:00,298.6631,1.85,12.09,47.84626,-54.09684
2024-04-14 15:39:00+00:00,300.7614,1.83,12.09,47.84626,-54.09684
2024-04-14 15:49:00+00:00,304.5747,1.82,12.09,47.84626,-54.09684
2024-04-14 15:59:00+00:00,304.173,1.82,12.09,47.84626,-54.09684
2024-04-14 16:09:00+00:00,302.0447,1.82,12.09,47.84626,-54.09684
2024-04-14 16:19:00+00:00,303.5764,1.84,12.09,47.84626,-54.09684
2024-04-14 16:29:00+00:00,301.558,1.84,12.09,47.84626,-54.09684
2024-04-14 16:39:00+00:00,296.3214,1.85,12.09,47.84626,-54.09684
2024-04-14 16:49:00+00:00,295.0598,1.88,12.09,47.84626,-54.09684
2024-04-14 16:59:00+00:00,297.8047,1.9,12.09,47.84626,-54.09684
2024-04-14 17:09:00+00:00,297.2247,1.9,12.09,47.84626,-54.09684
2024-04-14 17:19:00+00:00,294.5714,1.9,12.09,47.84626,-54.09684
2024-04-14 17:29:00+00:00,296.578,1.9,12.09,47.84626,-54.09684
2024-04-14 17:39:00+00:00,290.2964,1.9,12.09,47.84626,-54.09684
2024-04-14 17:49:00+00:00,282.6263,1.9,12.09,47.84626,-54.09684
2024-04-14 17:59:00+00:00,279.5314,1.9,12.09,47.84626,-54.09684
2024-04-14 18:09:00+00:00,279.283,1.9,12.09,47.84626,-54.09684
2024-04-14 18:19:00+00:00,271.8648,1.9,12.09,47.84626,-54.09684
2024-04-14 18:29:00+00:00,263.1964,1.9,12.09,47.84626,-54.09684
2024-04-14 18:39:00+00:00,263.3481,1.9,12.09,47.84626,-54.09684
2024-04-14 18:49:00+00:00,267.9714,1.9,12.09,47.84626,-54.09684
2024-04-14 18:59:00+00:00,260.4615,1.9,12.09,47.84626,-54.09684
2024-04-14 19:09:00+00:00,244.9114,1.95,12.09,47.84626,-54.09684
2024-04-14 19:19:00+00:00,234.9048,1.99,12.09,47.84626,-54.09684
2024-04-14 19:29:00+00:00,233.4031,1.99,12.09,47.84626,-54.09684
2024-04-14 19:39:00+00:00,225.1548,2.0,12.09,47.84626,-54.09684
2024-04-14 19:49:00+00:00,216.6432,2.0,12.09,47.84626,-54.09684
2024-04-14 19:59:00+00:00,219.0331,2.16,12.09,47.84626,-54.09684
2024-04-14 20:09:00+00:00,219.3748,2.32,12.09,47.84626,-54.09684
2024-04-14 20:19:00+00:00,209.4781,2.39,12.09,47.84626,-54.09684
2024-04-14 20:29:00+00:00,202.9165,2.3,12.09,47.84626,-54.09684
2024-04-14 20:39:00+00:00,205.4165,2.3,12.09,47.84626,-54.09684
2024-04-14 20:49:00+00:00,201.3748,2.42,12.09,47.84626,-54.09684
2024-04-14 20:59:00+00:00,194.8615,2.57,12.09,47.84626,-54.09684
2024-04-14 21:09:00+00:00,200.0331,2.8,12.09,47.84626,-54.09684
2024-04-14 21:19:00+00:00,203.2781,2.9,12.01,47.84626,-54.09684
2024-04-14 21:29:00+00:00,204.2381,2.9,12.01,47.84626,-54.09684
2024-04-14 21:39:00+00:00,205.1031,2.87,12.01,47.84626,-54.09684
2024-04-14 21:49:00+00:00,203.2731,2.9,12.01,47.84626,-54.09684
2024-04-14 21:59:00+00:00,208.1931,2.88,12.01,47.84626,-54.09684
2024-04-14 22:09:00+00:00,215.3531,2.69,12.01,47.84626,-54.09684
2024-04-14 22:19:00+00:00,218.3181,2.5,12.01,47.84626,-54.09684
2024-04-14 22:29:00+00:00,215.4081,2.66,12.01,47.84626,-54.09684
2024-04-14 22:39:00+00:00,217.5748,2.6,12.01,47.84626,-54.09684
2024-04-14 22:49:00+00:00,224.5731,2.5,12.01,47.84626,-54.09684
2024-04-14 22:59:00+00:00,226.9431,2.5,12.01,47.84626,-54.09684
2024-04-14 23:09:00+00:00,226.5997,2.52,12.01,47.84626,-54.09684
2024-04-14 23:19:00+00:00,225.9281,2.5,12.01,47.84626,-54.09684
2024-04-14 23:29:00+00:00,227.6048,2.47,12.01,47.84626,-54.09684
2024-04-14 23:39:00+00:00,231.0131,2.3,12.01,47.84626,-54.09684
2024-04-14 23:49:00+00:00,227.9181,2.3,12.01,47.84626,-54.09684
2024-04-14 23:59:00+00:00,228.0698,2.31,12.01,47.84626,-54.09684
